sat.trackr.live / text

‹ back to catalog

STARLINK-11129 [DTC]

NORAD 60038 · 2024-112A

PAYLOAD ACTIVE UNKNOWN

§ Identity

Operator
Country
US
Launch date
2024-06-08
Launch site
AFWTR
Launch vehicle
Mass (kg)
RCS (m²)

Purposes: comms

External: N2YO · Heavens-Above · Gunter

§ Orbital elements

Epoch: 2026-09-21T13:57:52.599456Z

Period
91.74 min
Inclination
53.1586°
Eccentricity
0.0000909
Mean motion
15.69701715 rev/d
Perigee alt
359.1 km
Apogee alt
360.4 km
Semi-major
6,737.9 km
B*
-4.8433e-6
RAAN
20.9195°
Arg perigee
44.2542°
Mean anomaly
315.8548°
Rev number
13,174

§ Raw data

STARLINK-11129 [DTC]1 60038U 24112A   26264.58185879 -.00001175  00000+0 -48433-5 0  99902 60038  53.1586  20.9195 0000909  44.2542 315.8548 15.69701715131744

JSON: /api/v1/satellites/60038 · /tle

For live sub-satellite position, see the globe view (requires WebGL).

§ Visibility from observer

Set your observer location to see the next 7 days of passes ≥ 10°. The values pass through the URL so the page stays shareable.

No JS? Fill the form by hand. The geolocation button needs JavaScript.